Weather History for Anchorage Merrill, AK

Change the Weather History Date:

Sunday, March 30, 2014

  Actual Average Record
Temperature  
Mean Temperature 26 °F -  
Max Temperature 39 °F 35 °F 51 °F (2011)
Min Temperature 15 °F 19 °F 5 °F (2004)
Degree Days  
Heating Degree Days 39    
Moisture  
Dew Point 15 °F    
Average Humidity 62    
Maximum Humidity 78    
Minimum Humidity 38    
Precipitation  
Precipitation 0.00 in - - ()
Snow  
Snow 0.00 in - - ()
Snow Depth 7.00 in    
Sea Level Pressure  
Sea Level Pressure 30.00 in    
Wind  
Wind Speed 1 mph (NNW)    
Max Wind Speed 6 mph    
Max Gust Speed -    
Visibility 10 miles    
Events      
Averages and records for this station are not official NWS values.
T = Trace of Precipitation, MM = Missing Value Source: NWS Daily Summary

Daily Weather History Graph

Daily Weather History Graph

Search for Another Location

Airport:

Trip Planner

Search our weather history database for the weather conditions in past years. The results will help you decide how hot, cold, wet, or windy it might be!

Date:

Astronomy

Mar. 30, 2014 Rise Set
Actual Time 7:28 AM AKDT 8:40 PM AKDT
Civil Twilight 6:44 AM AKDT 9:25 PM AKDT
Nautical Twilight 5:48 AM AKDT 10:21 PM AKDT
Astronomical Twilight 4:43 AM AKDT 11:27 PM AKDT
Moon 7:18 AM AKDT (3/30) 9:16 PM AKDT (3/30)
Length of Visible Light 14h 41m
Length of Day
13h 12m
New Moon, 0% of the Moon is Illuminated
Mar 30
New Moon
Apr 7
First Quarter
Apr 14
Full
Apr 21
Last Quarter
Apr 28
New

Hourly Weather History & Observations

Time (AKDT) Temp. Windchill Dew Point Humidity Pressure Visibility Wind Dir Wind Speed Gust Speed Precip Events Conditions
12:53 AM 21.0 °F - 12.9 °F 71% 29.88 in 10.0 mi Calm Calm - N/A   Clear
1:53 AM 21.9 °F 17.2 °F 14.0 °F 72% 29.90 in 10.0 mi East 3.5 mph - N/A   Clear
2:53 AM 21.0 °F - 12.9 °F 71% 29.92 in 10.0 mi Calm Calm - N/A   Clear
3:53 AM 19.0 °F - 10.9 °F 71% 29.93 in 10.0 mi Calm Calm - N/A   Clear
4:53 AM 18.0 °F - 12.0 °F 78% 29.94 in 10.0 mi Calm Calm - N/A   Clear
5:53 AM 18.0 °F - 10.9 °F 74% 29.96 in 10.0 mi Calm Calm - N/A   Clear
6:53 AM 15.1 °F 9.4 °F 8.1 °F 74% 29.97 in 10.0 mi East 3.5 mph - N/A   Clear
7:53 AM 18.0 °F - 10.0 °F 71% 29.98 in 10.0 mi Calm Calm - N/A   Clear
8:53 AM 21.0 °F - 10.0 °F 63% 29.99 in 10.0 mi Calm Calm - N/A   Clear
9:53 AM 24.1 °F - 12.0 °F 60% 30.01 in 10.0 mi Calm Calm - N/A   Clear
10:53 AM 30.0 °F - 18.0 °F 61% 30.01 in 10.0 mi Calm Calm - N/A   Clear
11:53 AM 32.0 °F - 19.0 °F 59% 30.02 in 10.0 mi Calm Calm - N/A   Clear
12:53 PM 34.0 °F - 17.1 °F 50% 30.02 in 10.0 mi Calm Calm - N/A   Clear
1:53 PM 34.0 °F 31.0 °F 19.0 °F 54% 30.02 in 10.0 mi WNW 3.5 mph - N/A   Clear
2:53 PM 36.0 °F - 16.0 °F 44% 30.03 in 10.0 mi Calm Calm - N/A   Clear
3:53 PM 37.9 °F - 14.0 °F 38% 30.03 in 10.0 mi Calm Calm - N/A   Clear
4:53 PM 37.9 °F 35.5 °F 17.1 °F 43% 30.03 in 10.0 mi West 3.5 mph - N/A   Clear
5:53 PM 37.0 °F 32.4 °F 18.0 °F 46% 30.03 in 10.0 mi NW 5.8 mph - N/A   Clear
6:53 PM 36.0 °F 33.3 °F 17.1 °F 46% 30.04 in 10.0 mi NW 3.5 mph - N/A   Clear
7:53 PM 33.1 °F 30.0 °F 21.9 °F 64% 30.04 in 10.0 mi WNW 3.5 mph - N/A   Clear
8:53 PM 30.0 °F - 21.0 °F 69% 30.06 in 10.0 mi Calm Calm - N/A   Clear
9:53 PM 30.0 °F - 19.0 °F 64% 30.06 in 10.0 mi Calm Calm - N/A   Clear
10:53 PM 27.0 °F - 19.0 °F 72% 30.06 in 10.0 mi Calm Calm - N/A   Clear
11:53 PM 26.1 °F 21.9 °F 17.1 °F 69% 30.07 in 10.0 mi East 3.5 mph - N/A   Clear